Time,TemperatureF,DewpointF,PressureIn,WindDirection,WindDirectionDegrees,WindSpeedMPH,WindSpeedGustMPH,Humidity,HourlyPrecipIn,Conditions,Clouds,dailyrainin,SolarRadiationWatts/m^2,SoftwareType,DateUTC
2013-02-18 00:00:00,17.0,0.6,29.53,WNW,299,14.1,29.1,47,0.00,,,-99.99,1.0,HOBO +U30 +Weather +,2013-02-18 05:00:00,
2013-02-18 00:15:00,16.8,0.7,29.54,WNW,296,12.1,25.3,48,0.00,,,-99.99,1.0,HOBO +U30 +Weather +,2013-02-18 05:15:00,
2013-02-18 00:30:00,16.8,0.7,29.54,WNW,299,13.6,27.7,48,0.00,,,-99.99,1.0,HOBO +U30 +Weather +,2013-02-18 05:30:00,
2013-02-18 00:45:00,16.6,0.7,29.54,WNW,302,12.1,30.2,48,0.00,,,-99.99,1.0,HOBO +U30 +Weather +,2013-02-18 05:45:00,
2013-02-18 01:00:00,16.4,0.6,29.55,WNW,295,13.2,29.1,49,0.00,,,-99.99,1.0,HOBO +U30 +Weather +,2013-02-18 06:00:00,
2013-02-18 01:15:00,16.3,0.7,29.56,WNW,300,10.7,22.4,49,0.00,,,-99.99,1.0,HOBO +U30 +Weather +,2013-02-18 06:15:00,
2013-02-18 01:45:00,16.2,0.6,29.57,NW,306,11.6,29.1,49,0.00,,,-99.99,1.0,HOBO +U30 +Weather +,2013-02-18 06:45:00,
2013-02-18 02:00:00,16.1,0.5,29.58,WNW,303,11.6,24.2,49,0.00,,,-99.99,1.0,HOBO +U30 +Weather +,2013-02-18 07:00:00,
2013-02-18 02:15:00,16.0,0.5,29.58,WNW,299,12.5,24.4,49,0.00,,,-99.99,1.0,HOBO +U30 +Weather +,2013-02-18 07:15:00,
2013-02-18 02:30:00,15.7,0.4,29.59,WNW,299,12.1,21.5,50,0.00,,,-99.99,1.0,HOBO +U30 +Weather +,2013-02-18 07:30:00,
2013-02-18 02:45:00,15.7,0.6,29.60,WNW,298,10.1,19.0,50,0.00,,,-99.99,1.0,HOBO +U30 +Weather +,2013-02-18 07:45:00,
2013-02-18 03:00:00,15.7,0.5,29.60,WNW,299,13.0,24.8,50,0.00,,,-99.99,1.0,HOBO +U30 +Weather +,2013-02-18 08:00:00,
2013-02-18 03:15:00,15.5,0.4,29.61,WNW,300,12.5,23.3,50,0.00,,,-99.99,1.0,HOBO +U30 +Weather +,2013-02-18 08:15:00,
2013-02-18 03:30:00,15.4,0.5,29.62,WNW,295,11.2,21.3,50,0.00,,,-99.99,1.0,HOBO +U30 +Weather +,2013-02-18 08:30:00,
2013-02-18 03:45:00,15.3,0.5,29.63,WNW,298,10.1,19.0,51,0.00,,,-99.99,1.0,HOBO +U30 +Weather +,2013-02-18 08:45:00,
2013-02-18 04:00:00,15.2,0.4,29.65,WNW,299,10.7,20.8,51,0.00,,,-99.99,1.0,HOBO +U30 +Weather +,2013-02-18 09:00:00,
2013-02-18 04:15:00,15.2,0.6,29.65,WNW,295,10.1,19.5,51,0.00,,,-99.99,1.0,HOBO +U30 +Weather +,2013-02-18 09:15:00,
2013-02-18 04:30:00,15.2,0.5,29.66,WNW,296,10.7,22.4,51,0.00,,,-99.99,1.0,HOBO +U30 +Weather +,2013-02-18 09:30:00,
2013-02-18 04:45:00,15.1,0.5,29.67,WNW,299,9.2,16.6,51,0.00,,,-99.99,1.0,HOBO +U30 +Weather +,2013-02-18 09:45:00,
2013-02-18 05:00:00,15.1,0.5,29.68,WNW,296,10.3,19.9,51,0.00,,,-99.99,1.0,HOBO +U30 +Weather +,2013-02-18 10:00:00,
2013-02-18 05:15:00,14.9,0.4,29.69,WNW,300,8.3,24.8,51,0.00,,,-99.99,1.0,HOBO +U30 +Weather +,2013-02-18 10:15:00,
2013-02-18 05:30:00,14.8,0.4,29.70,WNW,298,10.3,24.2,52,0.00,,,-99.99,1.0,HOBO +U30 +Weather +,2013-02-18 10:30:00,
2013-02-18 05:45:00,14.7,0.3,29.71,WNW,296,11.2,24.2,52,0.00,,,-99.99,1.0,HOBO +U30 +Weather +,2013-02-18 10:45:00,
2013-02-18 06:00:00,14.6,0.2,29.72,WNW,299,11.2,21.5,52,0.00,,,-99.99,1.0,HOBO +U30 +Weather +,2013-02-18 11:00:00,
2013-02-18 06:15:00,14.5,0.2,29.73,WNW,302,10.3,22.8,52,0.00,,,-99.99,1.0,HOBO +U30 +Weather +,2013-02-18 11:15:00,
2013-02-18 06:30:00,14.6,0.4,29.74,WNW,299,10.1,19.9,52,0.00,,,-99.99,3.0,HOBO +U30 +Weather +,2013-02-18 11:30:00,
2013-02-18 06:45:00,14.4,0.2,29.75,WNW,293,10.3,24.8,52,0.00,,,-99.99,11.0,HOBO +U30 +Weather +,2013-02-18 11:45:00,
2013-02-18 07:00:00,14.6,0.4,29.75,WNW,292,10.3,23.3,52,0.00,,,-99.99,37.0,HOBO +U30 +Weather +,2013-02-18 12:00:00,
2013-02-18 07:15:00,15.0,0.5,29.76,WNW,288,10.7,21.5,52,0.00,,,-99.99,116.0,HOBO +U30 +Weather +,2013-02-18 12:15:00,
2013-02-18 07:30:00,15.5,0.7,29.77,WNW,288,11.6,22.8,51,0.00,,,-99.99,159.0,HOBO +U30 +Weather +,2013-02-18 12:30:00,
2013-02-18 07:45:00,15.9,0.7,29.77,WNW,292,12.5,25.3,50,0.00,,,-99.99,202.0,HOBO +U30 +Weather +,2013-02-18 12:45:00,
2013-02-18 08:00:00,16.5,1.0,29.78,WNW,295,11.2,20.8,49,0.00,,,-99.99,244.0,HOBO +U30 +Weather +,2013-02-18 13:00:00,
2013-02-18 08:15:00,17.1,1.3,29.78,WNW,296,11.6,23.7,49,0.00,,,-99.99,283.0,HOBO +U30 +Weather +,2013-02-18 13:15:00,
2013-02-18 08:30:00,18.2,1.7,29.79,WNW,300,13.0,26.6,47,0.00,,,-99.99,329.0,HOBO +U30 +Weather +,2013-02-18 13:30:00,
2013-02-18 08:45:00,18.7,1.6,29.79,WNW,296,13.0,28.6,46,0.00,,,-99.99,366.0,HOBO +U30 +Weather +,2013-02-18 13:45:00,
2013-02-18 09:00:00,19.2,1.8,29.79,WNW,298,12.5,26.2,45,0.00,,,-99.99,403.0,HOBO +U30 +Weather +,2013-02-18 14:00:00,
2013-02-18 09:15:00,19.7,1.8,29.80,WNW,300,14.1,22.8,44,0.00,,,-99.99,437.0,HOBO +U30 +Weather +,2013-02-18 14:15:00,
2013-02-18 09:30:00,21.3,2.7,29.79,WNW,303,11.6,23.3,43,0.00,,,-99.99,468.0,HOBO +U30 +Weather +,2013-02-18 14:30:00,
2013-02-18 09:45:00,22.0,2.5,29.80,WNW,299,12.5,21.5,42,0.00,,,-99.99,498.0,HOBO +U30 +Weather +,2013-02-18 14:45:00,
2013-02-18 10:00:00,23.0,2.6,29.80,WNW,296,10.7,19.5,40,0.00,,,-99.99,523.0,HOBO +U30 +Weather +,2013-02-18 15:00:00,
2013-02-18 10:15:00,23.2,1.8,29.80,WNW,292,12.5,25.3,38,0.00,,,-99.99,547.0,HOBO +U30 +Weather +,2013-02-18 15:15:00,
2013-02-18 10:30:00,24.6,2.5,29.80,WNW,296,11.6,22.4,37,0.00,,,-99.99,567.0,HOBO +U30 +Weather +,2013-02-18 15:30:00,
2013-02-18 10:45:00,25.0,1.7,29.80,NW,306,12.5,23.3,35,0.00,,,-99.99,583.0,HOBO +U30 +Weather +,2013-02-18 15:45:00,
2013-02-18 11:00:00,25.8,1.9,29.80,WNW,296,12.5,24.8,34,0.00,,,-99.99,596.0,HOBO +U30 +Weather +,2013-02-18 16:00:00,
2013-02-18 11:15:00,26.7,1.9,29.80,WNW,302,13.6,23.7,33,0.00,,,-99.99,606.0,HOBO +U30 +Weather +,2013-02-18 16:15:00,
2013-02-18 11:30:00,27.2,1.6,29.80,WNW,299,13.2,25.7,32,0.00,,,-99.99,609.0,HOBO +U30 +Weather +,2013-02-18 16:30:00,
2013-02-18 11:45:00,27.3,1.2,29.81,WNW,296,12.5,25.3,31,0.00,,,-99.99,614.0,HOBO +U30 +Weather +,2013-02-18 16:45:00,
2013-02-18 12:00:00,28.1,0.9,29.81,NW,305,13.2,22.8,30,0.00,,,-99.99,609.0,HOBO +U30 +Weather +,2013-02-18 17:00:00,
2013-02-18 12:15:00,29.0,0.8,29.82,WNW,303,13.2,22.8,29,0.00,,,-99.99,604.0,HOBO +U30 +Weather +,2013-02-18 17:15:00,
2013-02-18 12:45:00,30.0,1.1,29.82,WNW,289,11.6,24.4,28,0.00,,,-99.99,587.0,HOBO +U30 +Weather +,2013-02-18 17:45:00,
2013-02-18 13:00:00,29.9,0.7,29.82,WNW,288,12.1,27.1,27,0.00,,,-99.99,571.0,HOBO +U30 +Weather +,2013-02-18 18:00:00,
2013-02-18 13:15:00,30.1,0.3,29.83,WNW,298,10.3,20.8,27,0.00,,,-99.99,553.0,HOBO +U30 +Weather +,2013-02-18 18:15:00,
2013-02-18 13:30:00,30.3,0.0,29.83,WNW,299,12.5,25.3,26,0.00,,,-99.99,534.0,HOBO +U30 +Weather +,2013-02-18 18:30:00,
2013-02-18 13:45:00,31.0,0.4,29.83,NW,307,9.6,17.4,26,0.00,,,-99.99,509.0,HOBO +U30 +Weather +,2013-02-18 18:45:00,
2013-02-18 14:00:00,30.6,-0.4,29.84,WNW,303,13.0,24.2,25,0.00,,,-99.99,484.0,HOBO +U30 +Weather +,2013-02-18 19:00:00,
2013-02-18 14:15:00,31.0,-0.7,29.84,NW,305,11.6,22.4,25,0.00,,,-99.99,456.0,HOBO +U30 +Weather +,2013-02-18 19:15:00,
2013-02-18 14:30:00,31.0,-0.9,29.85,NW,313,11.6,22.8,24,0.00,,,-99.99,423.0,HOBO +U30 +Weather +,2013-02-18 19:30:00,
2013-02-18 14:45:00,31.5,-0.7,29.85,NW,317,10.7,20.8,24,0.00,,,-99.99,389.0,HOBO +U30 +Weather +,2013-02-18 19:45:00,
2013-02-18 15:00:00,31.6,-0.5,29.85,WNW,296,10.1,20.4,24,0.00,,,-99.99,354.0,HOBO +U30 +Weather +,2013-02-18 20:00:00,
2013-02-18 15:15:00,32.0,-0.4,29.86,WNW,302,9.6,26.6,24,0.00,,,-99.99,316.0,HOBO +U30 +Weather +,2013-02-18 20:15:00,
2013-02-18 15:30:00,32.0,0.0,29.86,WNW,295,8.7,17.9,24,0.00,,,-99.99,274.0,HOBO +U30 +Weather +,2013-02-18 20:30:00,
2013-02-18 15:45:00,31.2,1.8,29.87,West,268,8.7,17.0,27,0.00,,,-99.99,233.0,HOBO +U30 +Weather +,2013-02-18 20:45:00,
2013-02-18 16:00:00,30.8,1.4,29.88,West,272,8.3,17.9,27,0.00,,,-99.99,193.0,HOBO +U30 +Weather +,2013-02-18 21:00:00,
2013-02-18 16:15:00,30.9,1.2,29.88,West,275,8.3,15.4,27,0.00,,,-99.99,153.0,HOBO +U30 +Weather +,2013-02-18 21:15:00,
2013-02-18 16:30:00,30.4,0.9,29.90,West,271,8.3,17.4,27,0.00,,,-99.99,109.0,HOBO +U30 +Weather +,2013-02-18 21:30:00,
2013-02-18 16:45:00,30.0,0.2,29.90,West,277,8.7,17.9,27,0.00,,,-99.99,59.0,HOBO +U30 +Weather +,2013-02-18 21:45:00,
2013-02-18 17:00:00,29.2,-1.1,29.90,West,278,10.1,19.9,26,0.00,,,-99.99,13.0,HOBO +U30 +Weather +,2013-02-18 22:00:00,
2013-02-18 17:15:00,28.9,-1.5,29.91,West,281,8.7,17.0,26,0.00,,,-99.99,4.0,HOBO +U30 +Weather +,2013-02-18 22:15:00,
2013-02-18 17:30:00,28.0,-1.2,29.92,West,267,6.3,13.0,27,0.00,,,-99.99,1.0,HOBO +U30 +Weather +,2013-02-18 22:30:00,
2013-02-18 17:45:00,27.8,0.2,29.93,West,261,7.2,15.0,29,0.00,,,-99.99,1.0,HOBO +U30 +Weather +,2013-02-18 22:45:00,
2013-02-18 18:45:00,27.1,-0.3,29.96,West,264,6.7,14.5,29,0.00,,,-99.99,1.0,HOBO +U30 +Weather +,2013-02-18 23:45:00,
2013-02-18 19:00:00,26.5,-0.1,29.96,West,265,5.8,13.6,30,0.00,,,-99.99,1.0,HOBO +U30 +Weather +,2013-02-19 00:00:00,
2013-02-18 19:15:00,27.0,0.2,29.96,West,264,7.2,13.2,30,0.00,,,-99.99,1.0,HOBO +U30 +Weather +,2013-02-19 00:15:00,
2013-02-18 19:30:00,26.5,-0.1,29.97,West,264,5.4,13.0,30,0.00,,,-99.99,1.0,HOBO +U30 +Weather +,2013-02-19 00:30:00,
2013-02-18 19:45:00,26.3,0.2,29.98,WSW,257,5.8,11.2,31,0.00,,,-99.99,1.0,HOBO +U30 +Weather +,2013-02-19 00:45:00,
2013-02-18 20:00:00,25.6,0.3,29.98,WSW,253,7.2,13.2,32,0.00,,,-99.99,1.0,HOBO +U30 +Weather +,2013-02-19 01:00:00,
2013-02-18 20:45:00,24.8,1.4,29.99,WSW,257,6.3,10.7,35,0.00,,,-99.99,1.0,HOBO +U30 +Weather +,2013-02-19 01:45:00,
2013-02-18 21:00:00,24.7,1.5,30.00,WSW,254,6.3,11.6,35,0.00,,,-99.99,1.0,HOBO +U30 +Weather +,2013-02-19 02:00:00,
2013-02-18 21:15:00,24.1,1.3,30.00,WSW,251,5.4,10.1,36,0.00,,,-99.99,1.0,HOBO +U30 +Weather +,2013-02-19 02:15:00,
2013-02-18 21:30:00,24.0,1.4,30.00,WSW,254,6.7,12.5,36,0.00,,,-99.99,1.0,HOBO +U30 +Weather +,2013-02-19 02:30:00,
2013-02-18 21:45:00,23.5,1.4,30.00,WSW,258,4.9,9.2,37,0.00,,,-99.99,1.0,HOBO +U30 +Weather +,2013-02-19 02:45:00,
2013-02-18 22:00:00,23.8,2.0,30.00,WSW,258,6.3,10.7,38,0.00,,,-99.99,1.0,HOBO +U30 +Weather +,2013-02-19 03:00:00,
2013-02-18 22:15:00,23.6,1.9,30.00,West,261,6.7,10.3,38,0.00,,,-99.99,1.0,HOBO +U30 +Weather +,2013-02-19 03:15:00,
2013-02-18 22:30:00,23.4,2.0,30.01,West,260,7.8,13.0,38,0.00,,,-99.99,1.0,HOBO +U30 +Weather +,2013-02-19 03:30:00,
2013-02-18 22:45:00,23.3,2.1,30.01,West,264,7.2,14.5,39,0.00,,,-99.99,1.0,HOBO +U30 +Weather +,2013-02-19 03:45:00,
2013-02-18 23:00:00,23.5,2.4,30.01,West,261,6.7,13.6,39,0.00,,,-99.99,1.0,HOBO +U30 +Weather +,2013-02-19 04:00:00,
2013-02-18 23:15:00,23.6,2.7,30.01,West,265,6.7,13.6,39,0.00,,,-99.99,1.0,HOBO +U30 +Weather +,2013-02-19 04:15:00,
2013-02-18 23:30:00,23.3,2.3,30.01,West,263,6.7,13.0,39,0.00,,,-99.99,1.0,HOBO +U30 +Weather +,2013-02-19 04:30:00,
2013-02-18 23:45:00,23.5,2.4,30.01,West,271,5.8,11.2,39,0.00,,,-99.99,1.0,HOBO +U30 +Weather +,2013-02-19 04:45:00,